Weather History for LFPG - December, 2012

Change the Weather History Date:

Sunday, December 30, 2012

  Actual Average Record
Temperature  
Mean Temperature 47 °F -  
Max Temperature 50 °F 42 °F 55 °F (2002)
Min Temperature 44 °F 34 °F 24 °F (2008)
Degree Days  
Heating Degree Days 18    
Moisture  
Dew Point 39 °F    
Average Humidity 72    
Maximum Humidity 81    
Minimum Humidity 62    
Precipitation  
Precipitation 0.00 in - - ()
Sea Level Pressure  
Sea Level Pressure 30.08 in    
Wind  
Wind Speed 16 mph ()    
Max Wind Speed 22 mph    
Max Gust Speed 32 mph    
Visibility 6.2 miles    
Events      
Averages and records for this station are not official NWS values.
T = Trace of Precipitation, MM = Missing Value Source: Averaged Metar Reports

Daily Weather History Graph

Daily Weather History Graph

Search for Another Location

Airport or City:

Trip Planner

Search our weather history database for the weather conditions in past years. The results will help you decide how hot, cold, wet, or windy it might be!

Date:

Astronomy

Dec. 30, 2012 Rise Set
Actual Time 8:43 AM CET 5:01 PM CET
Civil Twilight 8:06 AM CET 5:38 PM CET
Nautical Twilight 7:26 AM CET 6:19 PM CET
Astronomical Twilight 6:47 AM CET 6:57 PM CET
Moon 7:30 PM CET (12/30) 9:32 AM CET (12/30)
Length of Visible Light 9h 31m
Length of Day
8h 17m
Waning Gibbous, 96% of the Moon is Illuminated
Dec 30
Waning Gibbous
Jan 5
Last Quarter
Jan 11
New
Jan 19
First Quarter
Jan 27
Full

Hourly Weather History & Observations

Time (CET) Temp. Windchill Dew Point Humidity Pressure Visibility Wind Dir Wind Speed Gust Speed Precip Events Conditions
12:00 AM 48.2 °F - 39.2 °F 71% 29.95 in 6.2 mi SSW 17.3 mph - N/A   Mostly Cloudy
12:30 AM 48.2 °F - 39.2 °F 71% 29.92 in 6.2 mi SSW 20.7 mph - N/A   Mostly Cloudy
1:00 AM 48.2 °F - 39.2 °F 71% 29.95 in 6.2 mi SSW 18.4 mph - N/A   Mostly Cloudy
1:30 AM 46.4 °F 38.5 °F 39.2 °F 76% 29.95 in 6.2 mi SSW 21.9 mph - N/A   Mostly Cloudy
2:00 AM 46.4 °F 39.0 °F 39.2 °F 76% 29.95 in 6.2 mi SW 19.6 mph - N/A   Scattered Clouds
2:30 AM 46.4 °F 39.0 °F 39.2 °F 76% 29.95 in 6.2 mi SW 19.6 mph 32.2 mph N/A   Mostly Cloudy
3:00 AM 46.4 °F 39.2 °F 39.2 °F 76% 29.95 in 6.2 mi SW 18.4 mph - N/A   Mostly Cloudy
3:30 AM 46.4 °F 39.2 °F 39.2 °F 76% 29.98 in 6.2 mi SW 18.4 mph - N/A   Mostly Cloudy
4:00 AM 46.4 °F 39.5 °F 39.2 °F 76% 29.98 in 6.2 mi SW 17.3 mph - N/A   Scattered Clouds
4:30 AM 46.4 °F 39.0 °F 39.2 °F 76% 29.98 in 6.2 mi SW 19.6 mph - N/A   Mostly Cloudy
5:00 AM 46.4 °F 39.5 °F 37.4 °F 71% 29.98 in 6.2 mi SW 17.3 mph - N/A   Scattered Clouds
5:30 AM 46.4 °F 39.2 °F 37.4 °F 71% 30.01 in 6.2 mi SW 18.4 mph - N/A   Scattered Clouds
6:00 AM 44.6 °F 36.9 °F 37.4 °F 76% 30.01 in 6.2 mi WSW 18.4 mph - N/A   Scattered Clouds
6:30 AM 44.6 °F 36.6 °F 37.4 °F 76% 30.01 in 6.2 mi WSW 19.6 mph - N/A   Mostly Cloudy
7:00 AM 44.6 °F 37.2 °F 35.6 °F 71% 30.01 in 6.2 mi SW 17.3 mph - N/A   Scattered Clouds
7:30 AM 44.6 °F 38.1 °F 35.6 °F 71% 30.04 in 6.2 mi SW 13.8 mph - N/A   Mostly Cloudy
8:00 AM 44.6 °F 37.8 °F 35.6 °F 71% 30.04 in 6.2 mi SW 15.0 mph - N/A   Mostly Cloudy
8:30 AM 44.6 °F 37.8 °F 37.4 °F 76% 30.06 in 6.2 mi SW 15.0 mph - N/A   Mostly Cloudy
9:00 AM 44.6 °F 37.8 °F 37.4 °F 76% 30.06 in 6.2 mi SW 15.0 mph - N/A   Scattered Clouds
9:30 AM 44.6 °F 37.4 °F 37.4 °F 76% 30.06 in 6.2 mi SW 16.1 mph - N/A   Scattered Clouds
10:00 AM 44.6 °F 37.2 °F 37.4 °F 76% 30.09 in 6.2 mi SW 17.3 mph - N/A   Partly Cloudy
10:30 AM 46.4 °F 40.1 °F 37.4 °F 71% 30.09 in 6.2 mi SW 15.0 mph - N/A   Partly Cloudy
11:00 AM 46.4 °F 39.8 °F 37.4 °F 71% 30.12 in 6.2 mi SW 16.1 mph - N/A   Scattered Clouds
11:30 AM 48.2 °F - 39.2 °F 71% 30.12 in 6.2 mi SW 17.3 mph - N/A   Scattered Clouds
12:00 PM 50.0 °F - 39.2 °F 66% 30.12 in 6.2 mi WSW 18.4 mph - N/A   Scattered Clouds
12:30 PM 48.2 °F - 37.4 °F 66% 30.12 in 6.2 mi WSW 18.4 mph - N/A   Scattered Clouds
1:00 PM 50.0 °F - 37.4 °F 62% 30.12 in 6.2 mi WSW 16.1 mph - N/A   Mostly Cloudy
1:30 PM 50.0 °F - 37.4 °F 62% 30.12 in 6.2 mi SW 17.3 mph - N/A   Mostly Cloudy
2:00 PM 50.0 °F - 39.2 °F 66% 30.12 in 6.2 mi WSW 18.4 mph - N/A   Mostly Cloudy
2:30 PM 50.0 °F - 39.2 °F 66% 30.12 in 6.2 mi WSW 18.4 mph - N/A   Mostly Cloudy
3:00 PM 50.0 °F - 37.4 °F 62% 30.12 in 6.2 mi WSW 17.3 mph - N/A   Mostly Cloudy
3:30 PM 50.0 °F - 39.2 °F 66% 30.12 in 6.2 mi SW 19.6 mph - N/A   Mostly Cloudy
4:00 PM 50.0 °F - 39.2 °F 66% 30.12 in 6.2 mi SW 18.4 mph - N/A   Mostly Cloudy
4:30 PM 50.0 °F - 39.2 °F 66% 30.15 in 6.2 mi SW 15.0 mph - N/A   Mostly Cloudy
5:00 PM 50.0 °F - 39.2 °F 66% 30.15 in 6.2 mi SW 15.0 mph - N/A   Mostly Cloudy
5:30 PM 50.0 °F - 39.2 °F 66% 30.15 in 6.2 mi SW 13.8 mph - N/A   Mostly Cloudy
6:00 PM 50.0 °F - 39.2 °F 66% 30.15 in 6.2 mi SW 16.1 mph - N/A   Mostly Cloudy
6:30 PM 50.0 °F - 39.2 °F 66% 30.15 in - SW 15.0 mph - N/A   Clear
7:00 PM 50.0 °F - 39.2 °F 66% 30.18 in - SW 17.3 mph - N/A   Clear
7:30 PM 50.0 °F - 41.0 °F 71% 30.18 in 6.2 mi SW 13.8 mph - N/A   Mostly Cloudy
8:00 PM 50.0 °F - 41.0 °F 71% 30.18 in 6.2 mi SW 12.7 mph - N/A   Mostly Cloudy
8:30 PM 48.2 °F - 41.0 °F 76% 30.18 in 6.2 mi SW 12.7 mph - N/A   Mostly Cloudy
9:00 PM 48.2 °F - 41.0 °F 76% 30.18 in 6.2 mi SW 12.7 mph - N/A   Mostly Cloudy
9:30 PM 48.2 °F - 41.0 °F 76% 30.18 in 6.2 mi SW 12.7 mph - N/A   Mostly Cloudy
10:00 PM 48.2 °F - 41.0 °F 76% 30.18 in 6.2 mi SW 15.0 mph - N/A   Mostly Cloudy
10:30 PM 46.4 °F 40.7 °F 41.0 °F 81% 30.18 in 6.2 mi SSW 12.7 mph - N/A   Mostly Cloudy
11:00 PM 46.4 °F 40.7 °F 41.0 °F 81% 30.18 in 6.2 mi SW 12.7 mph - N/A   Mostly Cloudy
11:30 PM 46.4 °F 40.7 °F 41.0 °F 81% 30.18 in 6.2 mi SSW 12.7 mph - N/A   Mostly Cloudy